COSMOS 1275 DEB, 42210

Orbit data source: Space-Track

COSMOS 1275 DEB, 42210 is space debris in LEO originally from a launch on Thu, 04 Jun 1981 UTC launched from the Plesetsk Missile And Space Complex (PKMTR). Debris objects in space refer to the collection of defunct objects orbiting the Earth. Examples of debris include non-operational satellites, rocket bodies, and fragments generated from explosions, collisions, or faulty payload assembly.

Loading next visibility...
Identifier
42210, 1981-053UA
Orbit
LEO
Country
Flag of CISCIS
Related business
Manufacturer
Unknown
Mission
Spacecraft
Bus & Motor
Unknown
Mass
Unknown
Launch date (UTC)
1981-06-04 (45 years ago)
Launch vehicle
Unknown
Launch site
Plesetsk Missile And Space Complex (PKMTR)
Object type
Payload
Rocket body
Debris
Shape & HBR
Unknown shape, 0.1 m
Radar Cross Section
Small (<0.1 m²)

Expand to show TLE details & history
Last TLE update: 3 days ago

TLE from 3 days ago
0 COSMOS 1275 DEB
1 42210U 81053UA  26170.57202109  .00000400  00000-0  41041-3 0  9995
2 42210  83.0073 269.1305 0104847 359.2859  16.4023 13.71684931627759
Epoch: 2026-06-19T13:43Z
TLE epoch observation values (Epoch: 2026-06-19T13:43:42.622Z)
Latitude
15.8899°
Longitude
157.39427°
Altitude
921.665 km
Speed
7.429 km/s
True Right ascension
18h 04m 29s
True Declination
15° 48' 06"
Sunlit
Object was in full shadow at epoch
Visualization orbit readout
Latitude
Unknown
Longitude
Unknown
Altitude
Unknown
Speed
Unknown
Apparent Right ascension
Unknown
Apparent Declination
Unknown
Sunlit
N/A
Visualization observer readout
Local Sidereal Time
21:46:22
Azimuth
Unknown
Elevation
Unknown
Doppler factor
Unknown
Orbital elements
Apogee altitude
1,067.938 km
Perigee altitude
913.419 km
Semi-major axis
7,368.816 km
Eccentricity
0.01048
Inclination
83.0073°
RAAN
269.1305°
Arg. of periapsis
359.2859°
True anomaly
16.74588°
Mean anomaly
16.4023°
Eccentric anomaly
16.57366°
Mean motion
3.4312 °/min
Orbital period
104.92 mins
BSTAR
0.00041041
Loading maneuver chart data...
Computing Atmospheric mass density...

Documentation

Showing up to 5 results
|